星链-11182 (STARLINK-11182)

导读 | 星芒AI

STARLINK-11182 是 SpaceX Starlink 卫星互联网项目中的第 11182 颗卫星。该卫星属于低轨通信卫星群,旨在为全球用户提供高速互联网服务。它于 2023 年发射,运行在约 550 公里的轨道高度,采用先进推进系统和激光通信技术,以提高网络效率和减少延迟。Starlink 项目致力于改善偏远地区网络覆盖,同时支持各类商业和军事通信需求。

基本信息
目录编号:
60399
目录名称:
STARLINK-11182
国际标识:
2024-141B
轨道中心:
EARTH
卫星名称:
星链-11182 (STARLINK-11182)
卫星全名:
星链-11182 (STARLINK-11182)
卫星状态:
在轨 (已飞行445 天)
发射日期:
2024-08-10 UTC
国别 :
美国 (US)
星等 :
--
轨道信息
数据来源 国际轨道数据
星历时间: 2025-10-28T23:08:25+0800
18小时前
查看轨道信息
半长轴: 6737.859km
偏心率: 0.0001104
轨道倾角: 53.159°
近地点辐角 76.892°
升交点赤经 17.115°
平近点角 283.222°
近地点: 358.98km
远地点: 360.468km
周期: 91.737分钟
每日圈数: 15.69712
详细信息
卫星平台:
Starlink v2.0 mini
运营商:
太空探索技术公司
运营商所在国:
美国
制造商(研发单位):
太空探索技术公司
制造商所在国:
美国
使用方式:
暂无
卫星简介
星链(Starlink)计划是由太空探索技术公司(SpaceX)提出的一个巨型低轨卫星互联网星座项目,计划在2019年至2024年间在太空搭建由约1.2万颗卫星组成的“星链”网络,其中1584颗将部署在地球上空550千米处的近地轨道,并从2020年开始工作。该卫星仍在工作。
2D轨道图
3D轨道图
轨道高度分析图
轨道倾角分析图
轨道综合分析图
查看轨道综合分析图